COSMOS 2540 (44517 NORAD) Tracking and Keplerian Element Data

This shows tracking and keplerian element data for the satellite.

Feedback or suggestion? Click here.




ElementValue
Catalog44517
NameCOSMOS 2540
Epoch Orbit415
Epoch Day272.62195028
Epoch Year2019
RAAN278.5485
Inclination99.2718
Eccentricity8.37E-05
Argument of Perigee109.449
Mean Anonmoly250.6859
Mean Motion13.85911798
Decay Rate-6.9E-07
L11 44517U 19057A 19272.62195028 -.00000069 00000-0 -21387-4 0 9999
L22 44517 99.2718 278.5485 0000837 109.4490 250.6859 13.85911798 4150

Live tracking and technical data element details for COSMOS 2540 (NORAD 44517). COSMOS 2540 can be tracked NOW for your location showing map with azimuth and elevation plus other details from your city location.

Track the satellite on the map from your city or location and see movement details for azimuth, elevation, latitude, longitude, range, height, and movement on the map or in text.







IsCatalogInMostPopularTable: catalog: 44517, numindb: 12
Update: records affected: 1



GetName: 44517 COSMOS 2540

Hit Count: updated at: Wed, 23 Oct 2019 00:43:12 GMT